This is the latest recevied weather packets stored in our database for station/object CX5ACA-13. If no packets are shown the sender has not sent any weather packets the latest 10 day(s).
| Time | Temp. | Humidity | Pressure | Rain* | Wind** | Luminosity | Snow |
|---|---|---|---|---|---|---|---|
| 1777904566 | 17.22° C | 64% | 1014.4 hPa | 0 mm | - | 478 W/m² | - |
| 1777904263 | 17.22° C | 63% | 1014.3 hPa | 0 mm | - | 301 W/m² | - |
| 1777903961 | 17.22° C | 64% | 1014.3 hPa | 0 mm | - | 345 W/m² | - |
| 1777903657 | 16.67° C | 65% | 1014.5 hPa | 0 mm | - | 530 W/m² | - |
| 1777903353 | 16.11° C | 68% | 1014.5 hPa | 0 mm | - | 281 W/m² | - |
| 1777903050 | 16.11° C | 68% | 1014.5 hPa | 0 mm | - | 281 W/m² | - |
| 1777902746 | 16.11° C | 68% | 1014.7 hPa | 0 mm | - | 287 W/m² | - |
| 1777902443 | 15.56° C | 69% | 1014.6 hPa | 0 mm | - | 266 W/m² | - |
| 1777902140 | 15° C | 70% | 1014.7 hPa | 0 mm | - | 208 W/m² | - |
| 1777901839 | 15° C | 71% | 1014.9 hPa | 0 mm | - | 167 W/m² | - |
| 1777901536 | 15° C | 72% | 1015 hPa | 0 mm | - | 156 W/m² | - |
| 1777901233 | 15° C | 72% | 1014.9 hPa | 0 mm | - | 136 W/m² | - |
| 1777900930 | 14.44° C | 72% | 1014.8 hPa | 0 mm | - | 164 W/m² | - |
| 1777900628 | 14.44° C | 73% | 1014.6 hPa | 0 mm | - | 126 W/m² | - |
| 1777900324 | 14.44° C | 73% | 1014.6 hPa | 0 mm | - | 105 W/m² | - |
| 1777900022 | 14.44° C | 73% | 1014.9 hPa | 0 mm | - | 101 W/m² | - |
| 1777899717 | 14.44° C | 73% | 1014.8 hPa | 0 mm | - | 103 W/m² | - |
| 1777899415 | 14.44° C | 74% | 1014.8 hPa | 0 mm | - | 117 W/m² | - |
| 1777899113 | 14.44° C | 73% | 1014.9 hPa | 0 mm | - | 104 W/m² | - |
| 1777898810 | 14.44° C | 73% | 1014.8 hPa | 0 mm | - | 155 W/m² | - |
| 1777898507 | 14.44° C | 73% | 1014.8 hPa | 0 mm | - | 323 W/m² | - |
| 1777898205 | 13.89° C | 74% | 1014.9 hPa | 0 mm | - | 163 W/m² | - |
| 1777897902 | 13.89° C | 74% | 1014.8 hPa | 0 mm | - | 128 W/m² | - |
| 1777897597 | 13.89° C | 74% | 1014.7 hPa | 0 mm | - | 146 W/m² | - |
| 1777897293 | 13.89° C | 74% | 1014.5 hPa | 0 mm | - | 161 W/m² | - |
* Rain latest hour (hover to see other rain measurements)
** Current wind speed in m/s (hover to see current wind gust speed)